Regional Weather Roundup
Issued by NWS Albany, NY

Home | Current Version | Previous Version | Text Only | Print | Product List | Glossary On
Versions: 1 2 3 4 5 6 7 8 9 10 11 12 13 14 15 16 17 18 19 20 21 22 23 24 25 26 27 28
000
ASUS41 KALY 260110
RWRALY

NEW YORK STATE HOURLY WEATHER ROUNDUP
NATIONAL WEATHER SERVICE ALBANY NY
900 PM EDT SAT MAR 25 2017

NOTE: "FAIR" INDICATES FEW OR NO CLOUDS BELOW 12,000 FEET WITH NO
SIGNIFICANT WEATHER AND/OR NO OBSTRUCTIONS TO VISIBILITY.

NYZ032-033-038>043-046>054-057>066-NYZ062>081-082-084-260200-
EAST


CITY           SKY/WX    TMP DP  RH WIND       PRES   REMARKS
ALBANY         CLOUDY    37  29  72 N6        30.42R WCI  32
GLENS FALLS    CLOUDY    34  26  72 N6        30.43R WCI  29
POUGHKEEPSIE   CLOUDY    35  33  92 NE7       30.38R WCI  29
NEWBURGH       MOCLDY    36  36 100 NE12      30.38R WCI  27
MONTGOMERY     CLOUDY    37  33  85 NE8       30.37R WCI  31
WHITE PLAINS   CLOUDY    43  39  86 N3        30.35R
ISLIP          CLOUDY    43  39  86 E6        30.35S
NEW YORK CITY  CLOUDY    45  38  76 NE10      30.36R
CENTRAL PARK   CLOUDY    44  40  85 VRB6      30.38R
$$

NYZ005>009-017-018-044>046-055-056-260200-
CENTRAL


CITY           SKY/WX    TMP DP  RH WIND       PRES   REMARKS
FULTON         CLOUDY    35  30  82 N7        30.40R WCI  29
SYRACUSE       CLOUDY    36  36 100 W6        30.39R WCI  31
ROME           CLOUDY    36  35  96 CALM      30.40R
ELMIRA         CLOUDY    37  33  85 NE6       30.36R WCI  32
BINGHAMTON     FOG       34  34 100 NE9       30.33R VSB 3/4 WCI  27
MONTICELLO     CLOUDY    36  36 100 E7        30.34R WCI  30
$$

NYZ026>034-041>043-087-260200-
NORTH


CITY           SKY/WX    TMP DP  RH WIND       PRES   REMARKS
WATERTOWN      CLOUDY    34  28  79 NE8       30.43R WCI  27
FORT DRUM      NOT AVBL
MASSENA        CLEAR     27  24  89 CALM      30.48R
SARANAC LAKE   CLEAR     23  22  96 CALM      30.38R
PLATTSBURGH    CLEAR     26  20  77 CALM      30.47R
$$

NYZ001>004-010>016-019>021-085-260200-
WEST


CITY           SKY/WX    TMP DP  RH WIND       PRES   REMARKS
NIAGARA FALLS  MOCLDY    36  30  79 E14       30.34R WCI  27
BUFFALO        CLOUDY    36  31  82 E15       30.33R WCI  27
DUNKIRK        CLOUDY    40  36  86 NE12      30.26S WCI  33
JAMESTOWN      CLOUDY    43  37  81 E8        30.21S
WELLSVILLE     CLOUDY    37  35  92 E8        30.29S WCI  31
ROCHESTER      CLOUDY    36  31  82 E16       30.39R WCI  26
PENN YAN       FOG       35  32  88 CALM      30.38R VSB 3/4
$$

             KEY
       WCI = WIND CHILL INDEX
       VSB = VISIBILITY
       HX  = HEAT INDEX
$$




USA.gov is the U.S. government's official web portal to all federal, state and local government web resources and services.